Regional Weather Roundup
Issued by NWS

Home | Current Version | Previous Version | Graphics & Text | Print | Product List | Glossary On
Versions: 1 2 3 4 5 6 7 8 9 10 11 12 13 14 15 16 17 18 19 20 21 22 23 24 25 26 27 28 29 30 31 32 33 34 35 36 37 38 39 40 41 42 43 44 45 46 47 48 49 50
000
ASUS45 KCYS 201110
RWRWY

WYOMING REGIONAL WEATHER ROUNDUP
NATIONAL WEATHER SERVICE CHEYENNE WY
500 AM MDT MON OCT 20 2014

NOTE:  "FAIR" INDICATES FEW OR NO CLOUDS BELOW 12,000 FEET
WITH NO SIGNIFICANT WEATHER AND/OR OBSTRUCTIONS TO VISIBILITY.

WYZ001-201200-
YELLOWSTONE NATIONAL PARK

CITY           SKY/WX    TMP DP  RH WIND       PRES   REMARKS
LK YELLOWSTONE   N/A     25  22  88 CALM      30.22F
W YELLOWSTONE  NOT AVBL

$$
WYZ002>013-054>058-071-098>099-201200-
NORTHERN WYOMING

CITY           SKY/WX    TMP DP  RH WIND       PRES   REMARKS
JACKSON        CLEAR     27  23  86 N5        30.19S WCI  21
CODY           CLEAR    N/A N/A N/A S7        30.03S
GREYBULL       CLEAR     37  28  70 SE3       30.02S
WORLAND        CLEAR     37  27  67 S7        30.02S WCI  32
SHERIDAN       PTCLDY    33  27  78 CALM      29.98S
BUFFALO        CLEAR     50  22  33 SW6       30.02F
GILLETTE       CLEAR     47  35  63 S17       30.03F
HULETT         FAIR      50  36  57 SW5       30.05
NEWCASTLE      FAIR      54  34  47 E9        30.08

$$
WYZ014>020-022>026-101>103-201200-
CENTRAL WYOMING

CITY           SKY/WX    TMP DP  RH WIND       PRES   REMARKS
BIG PINEY      PTCLDY    26  20  77 E3        30.21S
PINEDALE       MOSUNNY   27  23  86 W8        30.22S WCI  18
DUBOIS         FAIR      37  21  52 NW16G23   30.16F WCI  28
LANDER         PTCLDY    42  27  55 N3        30.09S
RIVERTON       PTCLDY    42  25  50 NW12      30.10S
CASPER         CLEAR     38  30  73 SW6       30.10S WCI  33
DOUGLAS        PTCLDY    36  31  82 CALM      30.10F

$$
WYZ021-027>030-104>119-201200-
SOUTHERN WYOMING

CITY           SKY/WX    TMP DP  RH WIND       PRES   REMARKS
EVANSTON       PTCLDY    42  27  55 SE3       30.18S
KEMMERER       MOSUNNY   36  28  75 N13       30.20S WCI  27
FORT BRIDGER   FAIR      46  31  56 W3        30.20F
ROCK SPRINGS   MOCLDY    41  28  60 SE6       30.18S
DIXON          FAIR      34  29  82 CALM      30.22S
RAWLINS        PTCLDY    32  24  72 N5        30.19S WCI  27
SARATOGA       FAIR      36  28  75 CALM      30.21S
LARAMIE        CLEAR     32  27  81 S8        30.21S WCI  25
CHEYENNE       CLEAR     39  32  76 W8        30.17F WCI  33
TORRINGTON     CLEAR     38  32  79 CALM      30.09F
PINE BLUFFS    FAIR      34  32  93 W5        30.15S WCI  30

$$



USA.gov is the U.S. government's official web portal to all federal, state and local government web resources and services.